This demonstration page uses our WeatherBlox Daily Observations layout. Learn more.

Left ArrowRight Arrow

Hourly Observations for May 11, 2020

Temp ( °F °C ) Dew Point ( °F °C ) Humidity (%) Winds ( mph kmh ) Pressure ( in mb ) Visibility ( mi km ) Precip ( " mm )
12:53 am 00:53 Clear 70 21.1 50 10 49 49 SSE 8 13 29.98 1015 10 16 0.00 0.00
1:53 am 01:53 Clear 66 18.9 50 10 56 56 E 8 13 29.96 1015 10 16 0.00 0.00
2:53 am 02:53 Clear 65 18.3 50 10 59 59 E 7 11 29.96 1014 10 16 0.00 0.00
3:53 am 03:53 Clear 63 17.2 49 9.4 60 60 E 9 15 29.95 1014 10 16 0.00 0.00
4:53 am 04:53 Clear 64 17.8 49 9.4 58 58 E 13 20 29.96 1015 10 16 0.00 0.00
5:53 am 05:53 Clear 62 16.7 47 8.3 58 58 E 12 19 29.96 1015 10 16 0.00 0.00
6:53 am 06:53 Clear 61 16.1 45 7.2 56 56 ESE 14 22 29.97 1015 10 16 0.00 0.00
7:53 am 07:53 Sunny 63 17.2 46 7.8 54 54 ESE 13 20 29.98 1015 10 16 0.00 0.00
8:53 am 08:53 Sunny 66 18.9 49 9.4 54 54 SE 17 28 29.99 1016 10 16 0.00 0.00
9:53 am 09:53 Sunny 71 21.7 53 11.7 53 53 SE 21 33 29.98 1015 10 16 0.00 0.00
10:53 am 10:53 Sunny 75 23.9 55 12.8 50 50 SSE 20 31 29.97 1015 N/A 0.00 0.00
11:53 am 11:53 Sunny 79 26.1 55 12.8 44 44 S 16 26 29.94 1014 10 16 0.00 0.00
12:53 pm 12:53 Sunny 82 27.8 53 11.7 37 37 S 16 26 29.92 1013 10 16 0.00 0.00
1:53 pm 13:53 Sunny 86 30 51 10.6 30 30 S 16 26 29.88 1012 10 16 0.00 0.00
2:53 pm 14:53 undefined 85 29.4 50 10 30 30 SSE 13 20 29.86 1011 10 16 0.00 0.00
3:53 pm 15:53 Sunny 87 30.6 50 10 28 28 S 12 19 29.82 1010 10 16 0.00 0.00
4:53 pm 16:53 Sunny 87 30.6 49 9.4 27 27 SE 13 20 29.78 1008 10 16 0.00 0.00
5:53 pm 17:53 Mostly Cloudy 86 30 53 11.7 32 32 SE 10 17 29.74 1007 10 16 0.00 0.00
6:06 pm 18:06 Partly Cloudy with Nearby Thunderstorms 85 29.4 54 12.2 35 35 ESE 12 19 29.67 1005 10 16 0.00 0.00
6:40 pm 18:40 Partly Cloudy with Thunderstorms N/A N/A N/A undefined N/A N/A N/A 0.00 0.00
6:53 pm 18:53 Partly Cloudy with Nearby Thunderstorms N/A N/A N/A undefined N/A N/A N/A 0.00 0.00
7:50 pm 19:50 Partly Cloudy with Thunderstorms 66 19 57 14 73 73 NW 30 48 29.90 1013 N/A 0.00 0.00
7:56 pm 19:56 Partly Cloudy with Heavy Rain 63 17.2 57 13.9 81 81 WNW 14 22 29.95 1014 2 2 0.16 4.06
7:59 pm 19:59 Partly Cloudy with Strong Thunderstorms 62 16.7 58 14.4 86 86 ENE 14 22 29.93 1014 1 1 0.29 7.37
8:08 pm 20:08 Partly Cloudy with Strong Thunderstorms 62 16.7 57 13.9 84 84 E 15 24 29.91 1013 2 3 0.38 9.65
8:16 pm 20:16 Cloudy with Thunderstorms 65 18.3 55 12.8 70 70 S 5 7 29.90 1012 4 6 0.39 9.91
9:53 pm 21:53 Cloudy with Light Rain 67 19.4 57 13.9 71 71 SE 10 17 29.75 1007 10 16 0.01 0.25
11:53 pm 23:53 undefined 65 18.3 57 13.9 76 76 undefined N/A 29.86 1011 10 16 0.00 0.00

Powered by AerisWeather